GW3945 Weather Reports


Display with metric or nautical units.
time (UTC)temp
F
wind
direction
speed
MPH
gust
MPH
rain 1hr
in
rain 24hr
in
rain mn
in
humidity
%
barometer
mb
20260901141131 81 225 0.0 0.0 0.00 0.00 0.00 87 1019.3
20260901140630 80 225 0.0 0.0 0.00 0.00 0.00 86 1019.3
20260901140129 80 224 0.0 0.0 0.00 0.00 0.00 87 1019.2
20260901135624 79 226 0.0 0.0 0.00 0.00 0.00 88 1019.2
20260901135119 79 228 0.0 0.0 0.00 0.00 0.00 90 1019.4
20260901134615 78 225 0.0 0.0 0.00 0.00 0.00 92 1019.4
20260901134110 78 225 0.0 0.0 0.00 0.00 0.00 92 1019.1
20260901133609 78 225 0.0 0.0 0.00 0.00 0.00 93 1019.4
20260901133107 77 225 0.0 0.0 0.00 0.00 0.00 93 1019.3
20260901132603 77 225 0.0 0.0 0.00 0.00 0.00 94 1019.2
20260901132057 76 225 0.0 0.0 0.00 0.00 0.00 94 1019.0
20260901131556 76 225 0.0 0.0 0.00 0.00 0.00 95 1019.3
20260901131051 75 226 0.0 0.0 0.00 0.00 0.00 95 1019.1
20260901130546 75 225 0.0 0.0 0.00 0.00 0.00 97 1019.1
20260901130044 75 225 0.0 0.0 0.00 0.00 0.00 97 1019.2
20260901125543 74 226 0.0 0.0 0.00 0.00 0.00 97 1018.9
20260901125038 73 225 0.0 0.0 0.00 0.00 0.00 98 1018.9
20260901124538 73 225 0.0 0.0 0.00 0.00 0.00 98 1018.9
20260901124033 73 226 0.0 0.0 0.00 0.00 0.00 98 1018.9
20260901123528 73 226 0.0 0.0 0.00 0.00 0.00 97 1018.7
20260901123028 72 226 0.0 0.0 0.00 0.00 0.00 97 1018.9
20260901122526 72 226 0.0 0.0 0.00 0.00 0.00 97 1018.7
20260901122025 72 226 0.0 0.0 0.00 0.00 0.00 97 1018.8
20260901121521 72 227 0.0 0.0 0.00 0.00 0.00 97 1018.5
20260901121016 72 227 0.0 0.0 0.00 0.00 0.00 97 1018.6
20260901120515 72 227 0.0 0.0 0.00 0.00 0.00 97 1018.5
20260901120011 72 228 0.0 0.0 0.00 0.00 0.00 98 1018.6
20260901115506 71 228 0.0 0.0 0.00 0.00 0.00 97 1018.5
20260901115003 72 228 0.0 0.0 0.00 0.00 0.00 97 1018.4
20260901114459 71 232 0.0 0.0 0.00 0.00 0.00 97 1018.6
20260901113956 71 229 0.0 0.0 0.00 0.00 0.00 97 1018.5
20260901113456 71 229 0.0 0.0 0.00 0.00 0.00 97 1018.1
20260901112951 71 229 0.0 0.0 0.00 0.00 0.00 97 1018.1
20260901112446 71 229 0.0 0.0 0.00 0.00 0.00 97 1018.1
20260901111941 71 229 0.0 0.0 0.00 0.00 0.00 97 1017.9
20260901111440 71 229 0.0 0.0 0.00 0.00 0.00 97 1017.9
20260901110938 71 229 0.0 0.0 0.00 0.00 0.00 97 1017.7
20260901110434 71 229 0.0 0.0 0.00 0.00 0.00 97 1017.9
20260901105930 71 229 0.0 0.0 0.00 0.00 0.00 97 1017.8
20260901105425 72 229 0.0 0.0 0.00 0.00 0.00 97 1017.7
20260901104916 72 230 0.0 0.0 0.00 0.00 0.00 97 1017.7
20260901104411 72 228 0.0 0.0 0.00 0.00 0.00 97 1017.7
20260901103906 71 229 0.0 0.0 0.00 0.00 0.00 96 1017.7
20260901103406 72 228 0.0 0.0 0.00 0.00 0.00 96 1017.5
20260901102901 71 229 0.0 0.0 0.00 0.00 0.00 97 1017.7
20260901102355 72 227 0.0 0.0 0.00 0.00 0.00 96 1017.7
20260901101851 72 228 0.0 0.0 0.00 0.00 0.00 97 1017.5
20260901101351 71 229 0.0 0.0 0.00 0.00 0.00 96 1017.4
20260901100850 72 229 0.0 0.0 0.00 0.00 0.00 96 1017.4
20260901100345 71 229 0.0 0.0 0.00 0.00 0.00 97 1017.7
20260901095845 72 229 0.0 0.0 0.00 0.00 0.00 96 1017.7
20260901095342 72 229 0.0 0.0 0.00 0.00 0.00 96 1017.3
20260901094836 72 229 0.0 0.0 0.00 0.00 0.00 96 1017.2
20260901094331 72 229 0.0 0.0 0.00 0.00 0.00 96 1017.5
20260901093826 72 229 0.0 0.0 0.00 0.00 0.00 96 1017.4
20260901093325 72 229 0.0 0.0 0.00 0.00 0.00 96 1017.4
20260901092821 72 229 0.0 0.0 0.00 0.00 0.00 96 1017.4
20260901092317 72 229 0.0 0.0 0.00 0.00 0.00 96 1017.1
20260901091813 72 229 0.0 0.0 0.00 0.00 0.00 96 1017.2
20260901091312 72 229 0.0 0.0 0.00 0.00 0.00 96 1017.2
20260901090808 72 229 0.0 0.0 0.00 0.00 0.00 96 1017.2
20260901090303 72 230 0.0 0.0 0.00 0.00 0.00 96 1017.2
20260901085759 72 229 0.0 0.0 0.00 0.00 0.00 96 1017.1
20260901085253 72 229 0.0 0.0 0.00 0.00 0.00 96 1017.1
20260901084750 72 231 0.0 0.0 0.00 0.00 0.00 96 1017.1
20260901084246 72 229 0.0 0.0 0.00 0.00 0.00 96 1017.1
20260901083746 72 229 0.0 0.0 0.00 0.00 0.00 96 1017.3
20260901083245 72 229 0.0 0.0 0.00 0.00 0.00 96 1017.3
20260901082744 72 229 0.0 0.0 0.00 0.00 0.00 95 1016.9
20260901082239 72 229 0.0 0.0 0.00 0.00 0.00 95 1017.0
20260901081735 72 229 0.0 0.0 0.00 0.00 0.00 95 1017.0
20260901081234 72 229 0.0 0.0 0.00 0.00 0.00 95 1016.9
20260901080730 72 229 0.0 0.0 0.00 0.00 0.00 95 1017.0
20260901080228 73 231 0.0 0.0 0.00 0.00 0.00 95 1016.8
20260901075723 73 226 0.0 0.0 0.00 0.00 0.00 95 1016.8
20260901075218 73 226 0.0 0.0 0.00 0.00 0.00 95 1017.0
20260901074712 73 226 0.0 0.0 0.00 0.00 0.00 95 1016.8
20260901074208 73 226 0.0 0.0 0.00 0.00 0.00 94 1016.8
20260901073704 73 226 0.0 0.0 0.00 0.00 0.00 94 1016.7
20260901073159 73 226 0.0 0.0 0.00 0.00 0.00 94 1016.8
20260901072654 73 226 0.0 0.0 0.00 0.00 0.00 94 1016.7
20260901072149 73 226 0.0 0.0 0.00 0.00 0.00 94 1017.1
20260901071648 73 226 0.0 0.0 0.00 0.00 0.00 94 1016.9
20260901071143 73 226 0.0 0.0 0.00 0.00 0.00 94 1016.9
20260901070637 73 226 0.0 0.0 0.00 0.00 0.00 95 1016.8
20260901070133 73 225 0.0 0.0 0.00 0.00 0.00 94 1016.8
20260901065632 73 225 0.0 0.0 0.00 0.00 0.00 94 1017.4
20260901065127 73 225 0.0 0.0 0.00 0.00 0.00 94 1016.8
20260901064624 74 227 0.0 0.0 0.00 0.00 0.00 94 1017.0
20260901064120 74 226 0.0 0.0 0.00 0.00 0.00 94 1017.2
20260901063616 74 227 0.0 0.0 0.00 0.00 0.00 94 1017.2
20260901063112 74 227 0.0 0.0 0.00 0.00 0.00 93 1017.1
20260901062608 73 229 0.0 0.0 0.00 0.00 0.00 93 1017.2
20260901062103 74 235 0.0 0.0 0.00 0.00 0.00 94 1017.3
20260901061600 73 229 0.0 0.0 0.00 0.00 0.00 94 1017.3
20260901061054 73 229 0.0 0.0 0.00 0.00 0.00 94 1017.4
20260901060549 73 229 0.0 0.0 0.00 0.00 0.00 94 1017.3
20260901060044 73 229 0.0 0.0 0.00 0.00 0.00 95 1017.1
20260901055539 74 229 0.0 0.0 0.00 0.00 0.00 95 1017.4
20260901055036 74 229 0.0 0.0 0.00 0.00 0.00 95 1017.2
20260901054533 74 228 0.0 0.0 0.00 0.00 0.00 94 1017.4
20260901054029 74 228 0.0 0.0 0.00 0.00 0.00 94 1017.3
20260901053525 74 228 0.0 0.0 0.00 0.00 0.00 94 1017.3
20260901053020 75 228 0.0 0.0 0.00 0.00 0.00 94 1017.2
20260901052515 75 228 0.0 0.0 0.00 0.00 0.00 94 1017.3
20260901052014 75 228 0.0 0.0 0.00 0.00 0.00 93 1017.1
20260901051510 75 228 0.0 0.0 0.00 0.00 0.00 93 1017.1
20260901051008 75 228 0.0 0.0 0.00 0.00 0.00 93 1017.2
20260901050504 75 228 0.0 0.0 0.00 0.00 0.00 93 1017.2
20260901045958 75 228 0.0 0.0 0.00 0.00 0.00 93 1016.9
20260901045454 75 228 0.0 0.0 0.00 0.00 0.00 92 1017.3
20260901044948 75 229 0.0 0.0 0.00 0.00 0.00 93 1017.2
20260901044444 75 228 0.0 0.0 0.00 0.00 0.00 93 1017.3
20260901043940 75 228 0.0 0.0 0.00 0.00 0.00 93 1017.3
20260901043436 75 228 0.0 0.0 0.00 0.00 0.00 92 1017.3
20260901042935 75 228 0.0 0.0 0.00 0.00 0.00 92 1017.4
20260901042435 75 227 0.0 0.0 0.00 0.00 0.00 93 1017.2
20260901041931 75 228 0.0 0.0 0.00 0.00 0.00 93 1017.2
20260901041426 75 227 0.0 0.0 0.00 0.00 0.00 93 1017.1
20260901040925 75 231 0.0 0.0 0.00 0.00 0.00 94 1017.1
20260901040420 76 225 0.0 0.0 0.00 0.00 0.00 94 1017.2
20260901035919 76 225 0.0 0.0 0.00 0.00 0.00 94 1017.3
20260901035418 76 225 0.0 0.0 0.00 0.00 0.00 94 1017.3
20260901034917 76 226 0.0 0.0 0.00 0.00 0.00 94 1017.3
20260901034412 76 225 0.0 0.0 0.00 0.00 0.00 94 1017.2
20260901033907 76 225 0.0 0.0 0.00 0.00 0.00 94 1017.0
20260901033406 76 228 0.0 0.0 0.00 0.00 0.00 93 1017.4
20260901032904 77 225 0.0 0.0 0.00 0.00 0.00 93 1016.9
20260901032404 77 226 0.0 0.0 0.00 0.00 0.00 93 1017.0
20260901031859 77 225 0.0 0.0 0.00 0.00 0.00 93 1016.9
20260901031355 77 225 0.0 0.0 0.00 0.00 0.00 92 1017.2
20260901030854 77 225 0.0 0.0 0.00 0.00 0.00 92 1017.0
20260901030351 77 225 0.0 0.0 0.00 0.00 0.00 91 1017.1
20260901025849 78 225 0.0 0.0 0.00 0.00 0.00 91 1017.0
20260901025344 77 245 0.0 0.0 0.00 0.00 0.00 90 1017.0
20260901024839 77 237 0.0 0.0 0.00 0.00 0.00 92 1017.2
20260901024338 77 224 0.0 0.0 0.00 0.00 0.00 93 1017.3
20260901023836 77 224 0.0 0.0 0.00 0.00 0.00 93 1017.0
20260901023332 77 249 0.0 0.0 0.00 0.00 0.00 93 1016.9
20260901022827 77 227 0.0 0.0 0.00 0.00 0.00 92 1017.0
20260901022323 77 228 0.0 0.0 0.00 0.00 0.00 93 1016.9
20260901021818 77 226 0.0 0.0 0.00 0.00 0.00 93 1016.8
20260901021313 78 226 0.0 0.0 0.00 0.00 0.00 92 1016.6
20260901020808 78 226 0.0 0.0 0.00 0.00 0.00 91 1016.8
20260901020303 78 226 0.0 0.0 0.00 0.00 0.00 91 1016.6
20260901015758 79 227 0.0 0.0 0.00 0.00 0.00 91 1016.5
20260901015254 79 227 0.0 0.0 0.00 0.00 0.00 91 1016.8
20260901014753 79 227 0.0 0.0 0.00 0.00 0.00 91 1016.6
20260901014249 79 227 0.0 0.0 0.00 0.00 0.00 90 1016.3
20260901013745 79 227 0.0 0.0 0.00 0.00 0.00 90 1016.5
20260901013240 80 227 0.0 0.0 0.00 0.00 0.00 90 1016.5
20260901012735 80 227 0.0 0.0 0.00 0.00 0.00 90 1016.3
20260901012235 80 227 0.0 0.0 0.00 0.00 0.00 90 1016.3
20260901011731 80 227 0.0 0.0 0.00 0.00 0.00 90 1016.1
20260901011226 80 227 0.0 0.0 0.00 0.00 0.00 90 1016.2
20260901010720 80 226 0.0 0.0 0.00 0.00 0.00 88 1016.1
20260901010215 81 226 0.0 0.0 0.00 0.00 0.00 87 1016.0
20260901005714 81 226 0.0 0.0 0.00 0.00 0.00 87 1015.9
20260901005209 81 226 0.0 0.0 0.00 0.00 0.00 87 1016.2
20260901004709 82 226 0.0 0.0 0.00 0.00 0.00 86 1016.2
20260901004203 82 226 0.0 0.0 0.00 0.00 0.00 86 1016.2
20260901003657 82 225 0.0 0.0 0.00 0.00 0.00 86 1015.9
20260901003157 82 224 0.0 0.0 0.00 0.00 0.00 82 1016.0
20260901002651 83 224 0.0 0.0 0.00 0.00 0.00 81 1016.1
20260901002146 84 224 0.0 0.0 0.00 0.00 0.00 82 1016.1
20260901001642 84 224 0.0 0.0 0.00 0.00 0.00 80 1015.9
20260901001136 84 224 0.0 0.0 0.00 0.00 0.00 79 1016.0
20260901000632 85 224 0.0 0.0 0.00 0.00 0.00 79 1016.1
20260901000127 85 224 0.0 0.0 0.00 0.00 0.00 77 1016.1
20260831235621 85 224 0.0 0.0 0.00 0.00 0.00 77 1016.2
20260831235116 86 224 0.0 0.0 0.00 0.00 0.00 75 1016.2
20260831234610 86 224 0.0 0.0 0.00 0.00 0.00 71 1016.2
20260831234106 86 224 0.0 0.0 0.00 0.00 0.00 71 1016.0
20260831233601 87 224 0.0 0.0 0.00 0.00 0.00 70 1016.4
20260831233056 87 226 0.0 0.0 0.00 0.00 0.00 69 1016.4
20260831232551 87 225 0.0 0.0 0.00 0.00 0.00 70 1016.5
20260831232047 88 206 0.0 0.0 0.00 0.00 0.00 67 1016.4
20260831231543 88 206 0.0 0.0 0.00 0.00 0.00 67 1016.3
20260831231039 89 206 0.0 0.0 0.00 0.00 0.00 65 1016.4
20260831230534 89 206 0.0 0.0 0.00 0.00 0.00 63 1016.3
20260831230034 89 206 0.0 0.0 0.00 0.00 0.00 63 1016.5
20260831225529 89 207 0.0 0.0 0.00 0.00 0.00 64 1016.5
20260831225024 89 207 0.0 0.0 0.00 0.00 0.00 61 1016.3
20260831224519 89 206 0.0 0.0 0.00 0.00 0.00 59 1016.4
20260831224014 89 206 0.0 0.0 0.00 0.00 0.00 59 1016.6
20260831223509 90 206 0.0 0.0 0.00 0.00 0.00 57 1016.7
20260831223006 91 206 0.0 0.0 0.00 0.00 0.00 57 1016.6
20260831222502 92 206 0.0 0.0 0.00 0.00 0.00 55 1016.9
20260831222001 92 207 0.0 0.0 0.00 0.00 0.00 56 1016.7
20260831221457 93 206 0.0 0.0 0.00 0.00 0.00 54 1016.8
20260831220952 93 207 0.0 0.0 0.00 0.00 0.00 55 1016.7
20260831220447 92 206 0.0 0.0 0.00 0.00 0.00 58 1016.7
20260831215942 92 206 0.0 0.0 0.00 0.00 0.00 55 1016.7
20260831215438 91 206 0.0 0.0 0.00 0.00 0.00 55 1016.8
20260831214934 91 207 0.0 0.0 0.00 0.00 0.00 55 1016.7
20260831214431 93 217 0.0 0.0 0.00 0.00 0.00 56 1016.9
20260831213927 93 222 0.0 0.0 0.00 0.00 0.00 54 1016.9
20260831213424 94 218 0.0 0.0 0.00 0.00 0.00 53 1016.8
20260831212923 93 218 0.0 0.0 0.00 0.00 0.00 53 1017.1
20260831212420 93 217 0.0 0.0 0.00 0.00 0.00 53 1017.0
20260831211919 92 217 0.0 0.0 0.00 0.00 0.00 55 1017.1
20260831211414 92 217 0.0 0.0 0.00 0.00 0.00 54 1016.9
20260831210908 91 218 0.0 0.0 0.00 0.00 0.00 56 1017.0
20260831210403 90 218 0.0 0.0 0.00 0.00 0.00 58 1017.1
20260831205859 89 217 0.0 0.0 0.00 0.00 0.00 59 1017.4
20260831205354 89 219 0.0 0.0 0.00 0.00 0.00 60 1017.1
20260831204849 89 225 0.0 0.0 0.00 0.00 0.00 58 1017.1
20260831204348 89 243 0.0 0.0 0.00 0.00 0.00 60 1017.3
20260831203848 89 217 0.0 0.0 0.00 0.00 0.00 60 1017.3
20260831203342 89 215 0.0 0.0 0.00 0.00 0.00 61 1017.3
20260831202840 90 226 0.0 0.0 0.00 0.00 0.00 60 1017.4
20260831202331 90 217 0.0 0.0 0.00 0.00 0.00 60 1017.2
20260831201830 91 224 0.0 0.0 0.00 0.00 0.00 58 1017.4
20260831201329 91 277 0.0 1.0 0.00 0.00 0.00 57 1017.4
20260831200825 91 216 0.0 0.0 0.00 0.00 0.00 59 1017.4
20260831200320 90 216 0.0 0.0 0.00 0.00 0.00 60 1017.5
20260831195815 90 219 0.0 0.0 0.00 0.00 0.00 60 1017.7
20260831195311 90 215 0.0 0.0 0.00 0.00 0.00 58 1017.8
20260831194806 90 213 0.0 0.0 0.00 0.00 0.00 60 1017.9
20260831194301 90 225 0.0 0.0 0.00 0.00 0.00 60 1017.8
20260831193754 89 236 0.0 0.0 0.00 0.00 0.00 59 1017.9
20260831193250 89 211 0.0 0.0 0.00 0.00 0.00 62 1018.0
20260831192745 90 207 0.0 0.0 0.00 0.00 0.00 61 1018.0
20260831192240 89 205 0.0 0.0 0.00 0.00 0.00 62 1017.9
20260831191736 89 204 0.0 0.0 0.00 0.00 0.00 61 1018.0
20260831191232 89 211 0.0 0.0 0.00 0.00 0.00 61 1018.1
20260831190727 89 196 0.0 0.0 0.00 0.00 0.00 61 1018.0
20260831190227 90 204 0.0 0.0 0.00 0.00 0.00 60 1017.9
20260831185721 90 218 0.0 0.0 0.00 0.00 0.00 62 1018.0
20260831185217 89 230 0.0 0.0 0.00 0.00 0.00 63 1018.0
20260831184716 89 202 0.0 0.0 0.00 0.00 0.00 63 1018.4
20260831184212 89 220 0.0 0.0 0.00 0.00 0.00 61 1018.2
20260831183711 89 223 0.0 0.0 0.00 0.00 0.00 62 1018.2
20260831183206 89 216 0.0 0.0 0.00 0.00 0.00 63 1018.3
20260831182705 89 215 0.0 0.0 0.00 0.00 0.00 64 1018.4
20260831182201 89 223 0.0 0.0 0.00 0.00 0.00 63 1018.7
20260831181655 89 212 0.0 0.0 0.00 0.00 0.00 64 1018.6
20260831181149 88 209 0.0 0.0 0.00 0.00 0.00 69 1018.5
20260831180645 89 221 0.0 0.0 0.00 0.00 0.00 64 1018.6
20260831180140 89 264 0.0 0.0 0.00 0.00 0.00 63 1018.8
20260831175634 89 226 0.0 0.0 0.00 0.00 0.00 64 1018.8
20260831175131 89 202 0.0 0.0 0.00 0.00 0.00 64 1018.8
20260831174631 88 213 0.0 0.0 0.00 0.00 0.00 63 1019.1
20260831174126 88 232 1.0 2.0 0.00 0.00 0.00 61 1019.2
20260831173624 88 226 0.0 0.0 0.00 0.00 0.00 64 1019.2
20260831173120 88 221 0.0 0.0 0.00 0.00 0.00 64 1019.0
20260831172615 89 262 0.0 0.0 0.00 0.00 0.00 66 1019.0
20260831172114 88 222 0.0 1.0 0.00 0.00 0.00 66 1019.2
20260831171610 88 214 0.0 0.0 0.00 0.00 0.00 67 1019.2
20260831171107 88 237 0.0 0.0 0.00 0.00 0.00 66 1019.5
20260831170603 88 235 1.0 2.0 0.00 0.00 0.00 65 1019.4
20260831170100 88 207 0.0 0.0 0.00 0.00 0.00 65 1019.3
20260831165555 88 230 0.0 0.0 0.00 0.00 0.00 64 1019.3
20260831165052 87 220 0.0 0.0 0.00 0.00 0.00 66 1019.4
20260831164547 87 207 0.0 0.0 0.00 0.00 0.00 70 1019.5
20260831164043 87 195 0.0 1.0 0.00 0.00 0.00 68 1019.7
20260831163537 87 218 0.0 0.0 0.00 0.00 0.00 70 1019.6
20260831163033 86 207 0.0 0.0 0.00 0.00 0.00 71 1019.6
20260831162532 86 222 0.0 1.0 0.00 0.00 0.00 70 1019.8
20260831162030 86 213 0.0 0.0 0.00 0.00 0.00 73 1019.6
20260831161527 86 216 0.0 0.0 0.00 0.00 0.00 73 1020.0
20260831161023 86 231 0.0 0.0 0.00 0.00 0.00 73 1019.6
20260831160522 86 238 1.0 2.0 0.00 0.00 0.00 73 1019.6
20260831160018 86 201 0.0 0.0 0.00 0.00 0.00 74 1019.5
20260831155512 86 220 0.0 0.0 0.00 0.00 0.00 73 1019.6
20260831155007 85 200 0.0 0.0 0.00 0.00 0.00 73 1019.8
20260831154504 85 223 0.0 0.0 0.00 0.00 0.00 75 1019.8
20260831154003 85 217 0.0 0.0 0.00 0.00 0.00 74 1019.7
20260831153457 85 222 0.0 0.0 0.00 0.00 0.00 76 1019.9
20260831152954 85 235 0.0 0.0 0.00 0.00 0.00 76 1019.7
20260831152449 84 212 0.0 0.0 0.00 0.00 0.00 79 1019.7
20260831151944 84 210 0.0 0.0 0.00 0.00 0.00 80 1019.7
20260831151443 84 223 0.0 0.0 0.00 0.00 0.00 78 1019.7
20260831150938 84 246 0.0 0.0 0.00 0.00 0.00 79 1019.7
20260831150434 84 205 0.0 0.0 0.00 0.00 0.00 79 1019.6
20260831145933 83 219 0.0 0.0 0.00 0.00 0.00 80 1019.6
20260831145430 83 209 0.0 0.0 0.00 0.00 0.00 82 1019.5
20260831144925 83 212 0.0 0.0 0.00 0.00 0.00 82 1019.6
20260831144421 83 212 0.0 0.0 0.00 0.00 0.00 82 1019.5
20260831143916 81 209 0.0 0.0 0.00 0.00 0.00 83 1019.4
20260831143411 81 207 0.0 0.0 0.00 0.00 0.00 84 1019.3
20260831142907 81 209 0.0 0.0 0.00 0.00 0.00 86 1019.2
20260831142402 80 206 0.0 0.0 0.00 0.00 0.00 86 1019.4
20260831141856 80 204 0.0 0.0 0.00 0.00 0.00 86 1019.4
20260831141350 79 205 0.0 0.0 0.00 0.00 0.00 87 1019.4